Location: Mahannah Oil Field
(37.4664°N, 96.6003°W)
Time: 02:08:16
(UTC+00:00)

A-11 Canister half - Pass Details

Date: 29 January 2021
Orbit: 1524 x 1684 km, 47.3° (Epoch: 25 February)

Event Time Altitude Azimuth Distance (km) Brightness Sun altitude
Rises 16:26:39 0° 174° (S) 4,673 12.4 26.5°
Reaches altitude 10° 16:31:37 10° 152° (SSE) 3,682 12.8 27.1°
Maximum altitude 16:36:02 14° 123° (ESE) 3,341 12.2 27.6°
Drops below altitude 10° 16:40:27 10° 94° (E) 3,691 11.6 28.1°
Sets 16:45:23 0° 72° (ENE) 4,691 11.7 28.6°
